SCP
0 1 2 3 5 6 6 6 5 4 4 4 5 4 3 2 2 2 1 1 1 1 1 1 1 1 1 1 1 0 0 0 0 1 1 0 0 1 1 1 0 0 0
1 1 2 3 5 6 7 6 6 5 5 5 5 4 4 3 2 2 2 1 1 1 1 1 1 1 1 1 0 0 0 0 0 0 0 0 0 0 0 0 0 0 0
1 1 2 3 5 7 7 7 6 6 6 5 5 5 5 4 3 2 2 2 1 1 1 1 1 1 1 1 1 0 0 0 0 0 0 0 0 0 0 0 0 0 0
1 1 2 3 5 7 8 8 7 6 6 6 5 6 5 5 4 3 2 2 2 2 1 1 1 1 1 1 1 1 1 0 0 0 0 0 0 0 0 0 0 0 0
1 2 2 3 5 8 8 8 7 6 6 5 6 6 6 6 5 4 3 3 2 2 2 2 2 2 2 1 1 1 1 0 0 0 0 0 0 0 0 0 0 0 0
2 2 2 3 5 8 9 9 7 6 5 5 5 6 7 7 6 4 4 3 3 3 3 3 3 2 2 2 1 1 0 0 0 0 0 0 0 0 0 0 0 0 0
2 3 3 3 4 7 10 9 7 6 5 5 5 6 7 7 6 5 4 4 4 4 3 3 3 3 2 2 1 1 0 0 0 0 0 0 0 0 0 0 0 0 0
2 2 2 2 3 6 8 9 7 6 5 5 5 6 6 6 6 5 5 4 4 4 4 4 4 3 2 2 1 1 0 0 0 0 0 0 0 0 0 0 0 0 0
2 2 2 2 3 4 6 7 6 5 5 4 5 5 5 6 6 5 4 4 4 4 4 4 3 3 2 2 1 1 0 0 0 0 0 0 0 0 0 0 0 0 0
2 2 2 2 3 3 4 4 5 4 4 4 4 4 5 5 5 5 4 3 3 3 3 3 3 3 2 2 1 0 0 0 0 0 0 0 0 0 0 0 0 1 1
2 2 2 3 3 3 4 4 4 4 4 4 5 4 4 5 5 4 3 2 2 2 3 2 2 2 2 1 1 0 0 0 0 0 0 0 0 0 0 0 1 1 1
2 2 2 3 3 3 4 4 5 5 5 5 5 5 4 4 4 3 2 2 1 1 1 1 1 1 1 1 0 0 0 0 0 0 0 0 0 0 0 1 1 1 1
3 2 2 2 3 3 4 4 4 4 4 5 4 4 4 3 2 2 1 1 1 1 1 1 1 0 0 0 0 0 0 0 0 0 0 0 0 0 1 1 1 1 1
3 3 2 2 2 3 3 4 4 3 3 3 3 3 2 2 2 1 1 1 0 0 0 0 0 0 0 0 0 0 0 0 0 0 0 0 0 1 1 1 1 1 1
3 3 3 2 2 2 3 3 3 2 2 2 2 2 2 2 2 2 1 1 0 0 0 0 0 0 0 0 0 0 0 0 0 0 0 0 0 1 1 1 1 1 1
3 3 3 2 2 2 2 2 2 2 2 2 2 2 2 2 2 2 1 1 0 0 0 0 0 0 0 0 0 0 0 0 0 0 0 0 0 0 0 1 1 1 1
3 3 2 2 2 2 2 2 2 2 2 2 2 1 1 1 1 1 1 1 0 0 0 0 0 0 0 0 0 0 0 0 0 0 0 0 0 0 0 0 0 1 1
2 2 2 2 2 2 2 2 2 2 1 2 2 2 1 1 1 1 1 1 1 0 0 0 0 0 0 0 0 0 0 0 0 0 0 0 0 0 0 0 0 0 1
1 1 1 1 1 2 2 2 2 2 1 2 2 2 1 1 1 1 1 1 1 0 0 0 0 0 0 0 0 0 0 0 0 0 0 0 0 0 0 0 0 0 1
0 0 1 1 1 1 2 2 2 2 1 1 2 1 1 1 1 1 1 1 1 1 0 0 0 0 0 0 0 0 0 0 0 0 0 0 0 0 0 0 0 0 0
0 0 0 1 1 1 1 2 2 1 1 1 1 1 1 1 1 1 1 1 1 1 0 0 0 0 0 0 0 0 0 0 0 0 0 0 0 0 0 0 0 0 0
0 0 0 0 1 1 1 1 1 1 1 1 1 1 1 1 1 1 1 1 1 1 0 0 0 0 0 0 0 0 0 0 0 0 0 0 0 0 0 0 0 0 0
0 0 0 0 1 1 1 1 1 1 1 1 1 1 1 1 0 0 0 1 1 1 0 0 0 0 0 0 0 0 0 0 0 0 0 0 0 0 0 0 0 0 0
0 0 0 0 0 1 1 1 1 0 0 0 0 0 1 1 0 0 0 0 1 1 0 0 0 0 0 0 0 0 0 0 0 0 0 0 0 0 0 0 0 0 0
0 0 0 0 0 0 0 0 0 0 0 0 0 0 0 0 0 0 0 0 1 1 1 0 0 0 0 0 0 0 0 0 0 0 0 0 0 0 0 0 0 0 0
0 0 0 0 0 0 0 0 0 0 0 0 0 0 0 0 0 0 0 0 1 1 1 1 0 0 0 0 0 0 0 0 0 0 0 0 0 0 0 0 0 0 0
Wind_Speed
2 2 3 5 7 7 8 8 8 8 8 9 10 10 10 10 10 10 10 10 10 10 11 11 11 11 12 12 12 12 13 13 13 13 13 13 13 13 13 13 12 8 13
3 3 3 5 7 7 7 7 7 8 8 8 9 9 9 9 10 9 9 9 9 10 10 11 11 11 12 12 12 12 12 12 12 12 12 11 12 12 12 12 11 8 12
3 3 3 5 7 7 7 7 7 7 7 8 8 8 9 9 9 9 9 9 9 9 10 11 11 11 11 11 11 12 12 12 12 12 10 6 7 11 12 12 11 12 11
3 2 2 5 7 7 8 8 7 7 7 7 7 8 8 9 9 9 9 8 9 9 10 11 10 10 11 11 11 12 12 12 12 11 6 5 4 9 11 11 11 11 11
3 2 2 4 6 7 7 7 7 7 6 6 7 7 8 8 8 8 8 8 9 9 9 10 10 10 10 11 11 11 11 11 12 9 5 5 4 8 10 10 10 10 10
3 2 2 4 6 6 6 7 7 7 6 6 6 6 7 8 8 8 8 8 8 8 8 8 9 9 10 10 10 11 11 11 9 6 5 4 4 7 9 9 9 9 10
2 2 2 4 5 6 6 6 6 6 6 6 6 6 7 7 7 8 8 8 8 8 8 8 8 9 9 9 10 10 10 10 6 5 4 3 3 7 8 8 8 8 8
2 2 2 3 4 5 5 6 5 5 5 5 6 6 6 7 7 7 8 7 7 7 7 7 8 8 8 9 9 9 9 8 6 4 3 3 4 6 7 7 7 7 7
3 3 2 2 2 4 4 5 5 4 4 5 5 6 6 7 7 7 6 6 7 7 7 7 7 7 7 8 8 8 8 8 5 3 3 2 3 5 6 7 6 6 6
3 3 2 2 2 2 2 3 4 4 4 4 5 5 6 6 6 6 5 5 6 6 6 6 7 6 7 7 8 7 7 6 4 3 2 2 3 4 5 5 6 6 6
3 2 2 2 1 1 2 2 3 3 3 4 3 5 5 3 3 3 4 5 5 5 5 6 6 6 6 6 7 7 6 2 2 2 1 2 3 3 4 5 5 5 5
0 1 1 1 1 1 1 2 1 2 2 2 2 3 2 3 2 3 4 5 5 5 5 6 6 6 5 3 4 5 2 2 2 1 1 2 2 2 3 3 4 4 4
1 0 1 1 1 1 1 1 1 1 1 2 2 2 2 2 2 2 2 2 3 4 3 4 4 2 2 3 2 2 2 2 1 1 1 2 2 2 2 2 2 2 3
1 1 2 1 1 1 1 1 1 1 1 1 2 2 2 2 2 2 2 2 2 1 2 2 2 2 3 3 3 2 2 2 1 1 1 2 2 1 1 1 1 1 1
2 2 2 1 1 1 1 1 1 1 1 2 2 2 3 2 2 2 2 2 1 1 2 2 2 3 3 2 2 2 2 2 2 1 1 3 3 2 2 0 1 0 0
1 1 2 1 1 1 1 1 1 1 1 1 2 2 2 2 2 2 2 2 1 1 1 2 2 3 2 2 2 1 1 2 2 1 1 2 4 3 3 2 1 1 1
1 1 2 1 1 1 1 1 1 1 1 1 1 2 2 2 3 3 2 2 1 1 2 2 2 2 2 2 2 1 1 1 1 1 1 1 2 4 4 3 3 2 2
1 1 1 1 1 1 0 1 1 1 1 1 1 1 2 2 3 3 2 2 2 2 2 2 2 2 2 1 1 0 1 1 1 1 1 1 1 1 3 5 4 4 3
1 1 1 2 1 1 0 1 1 1 1 1 1 1 1 1 2 2 2 2 3 2 2 2 1 2 2 1 1 0 0 0 0 0 0 1 1 1 1 3 4 5 5
2 2 1 2 2 2 1 2 1 1 1 1 1 1 1 1 1 1 2 3 3 2 2 2 2 1 2 2 1 1 0 0 0 0 0 0 0 1 1 1 2 3 5
2 2 1 2 2 1 1 1 0 0 0 0 0 1 1 1 1 1 1 2 3 3 3 3 3 2 1 2 2 1 1 1 0 0 0 0 0 1 1 1 1 1 2
1 1 1 1 1 0 1 0 0 0 0 0 0 0 1 1 1 1 2 2 3 3 3 3 3 2 1 1 2 1 0 1 1 0 0 1 0 0 1 1 1 1 1
1 1 1 1 1 0 1 2 2 2 1 1 1 1 1 1 1 1 2 2 2 3 4 5 4 4 3 1 1 2 2 2 1 1 1 1 1 0 1 1 1 1 1
2 1 1 1 1 1 1 1 2 1 0 1 1 1 1 1 1 1 1 2 2 2 3 4 4 3 4 3 1 1 1 2 2 1 1 1 1 1 1 1 1 1 1
1 1 0 1 1 1 1 1 1 0 0 1 1 0 1 1 1 1 2 2 2 2 2 2 3 3 3 3 3 2 1 0 1 2 2 1 1 1 1 1 1 1 1
1 1 1 1 1 1 1 1 1 1 0 0 1 1 1 1 1 1 1 2 2 2 2 2 2 4 4 4 3 3 3 2 2 2 2 2 2 1 1 0 0 0 1
Wind_Direction
234 218 203 147 134 125 123 119 115 110 108 109 110 111 111 110 109 108 105 102 99 94 90 89 93 93 91 89 86 84 82 81 79 77 78 80 81 82 80 75 71 67 73
173 174 180 149 138 131 125 123 118 112 111 111 112 114 114 114 113 112 109 105 101 97 95 94 94 95 93 89 87 87 85 82 79 75 72 72 78 81 81 78 76 75 74
121 152 168 149 141 135 130 125 121 118 117 116 116 117 118 116 114 114 110 108 104 102 101 99 96 96 96 93 91 89 87 85 80 74 67 57 70 80 79 77 75 74 75
114 120 143 144 143 137 134 131 126 122 121 121 121 118 117 116 113 112 111 109 106 105 104 101 98 98 98 98 94 91 89 86 80 74 61 54 62 81 81 78 75 74 73
107 101 123 128 138 138 136 136 132 128 125 126 125 121 120 118 114 111 110 107 106 105 104 103 100 100 101 100 98 95 91 86 79 69 59 53 55 79 81 79 76 74 71
105 94 119 127 133 133 136 138 137 135 133 131 128 124 121 118 113 110 107 108 107 104 102 101 101 100 102 102 100 97 93 87 77 65 57 50 49 81 82 80 76 75 72
108 91 111 123 131 132 134 136 136 138 138 135 133 129 122 118 114 111 109 108 110 105 102 101 103 102 104 104 101 97 92 85 78 67 58 49 57 85 85 82 78 75 73
97 80 89 114 128 131 134 135 132 133 132 132 129 124 121 118 114 113 113 112 110 107 106 105 101 102 104 107 102 96 90 83 77 65 55 48 59 82 86 84 79 77 73
69 67 60 87 114 125 132 134 133 129 129 130 130 125 117 113 112 108 106 113 113 115 113 108 100 101 104 107 103 95 89 82 78 63 51 40 62 85 88 86 80 77 78
59 54 51 64 88 106 122 127 125 122 122 122 123 121 117 115 112 108 104 110 110 110 114 110 103 102 104 105 101 93 86 80 73 60 44 39 64 86 90 89 84 81 81
41 34 45 63 77 92 107 104 116 118 114 110 114 114 113 106 106 107 106 109 113 110 111 108 106 101 97 98 97 91 82 74 74 58 33 28 69 83 89 92 92 90 87
307 344 22 72 97 94 92 99 100 90 94 96 101 111 108 100 95 92 103 101 97 97 101 100 95 89 83 88 90 86 79 74 68 48 23 31 66 88 94 97 97 95 93
232 284 2 15 74 106 105 102 89 85 89 91 97 100 102 98 91 80 81 80 79 79 76 80 76 71 92 102 98 91 91 83 63 30 15 33 49 77 99 108 103 109 102
13 345 6 15 57 90 101 120 121 112 111 108 112 117 114 111 104 102 95 84 81 83 88 81 83 76 87 101 110 106 99 90 69 35 18 35 32 34 88 141 140 137 135
16 352 345 18 56 119 109 108 115 130 134 133 128 135 131 132 130 123 117 104 97 94 105 107 101 90 86 84 91 108 105 90 72 50 20 25 25 24 29 96 174 153 75
346 351 350 5 17 97 140 147 145 143 134 133 136 141 137 137 140 136 133 123 114 112 116 121 121 109 98 96 85 79 99 97 83 65 36 20 18 19 18 7 343 318 310
310 343 348 358 26 63 133 164 144 148 137 134 142 146 141 142 151 151 147 148 146 128 115 105 103 100 96 87 82 70 75 87 95 69 39 28 18 19 13 7 3 349 327
357 2 347 3 13 15 63 142 154 146 141 140 141 139 138 147 157 155 155 165 158 141 132 127 125 112 108 99 88 58 68 71 78 71 51 35 26 11 3 1 360 354 339
5 20 12 357 351 329 30 91 108 128 134 132 122 122 133 130 153 160 163 165 157 147 148 145 141 140 138 129 137 128 88 107 130 89 60 23 14 6 1 353 2 356 343
19 30 25 13 8 11 47 63 74 79 90 89 102 110 125 135 137 151 161 161 158 151 152 150 149 142 146 146 125 76 351 292 107 125 243 347 11 15 1 347 358 344 343
25 23 13 15 8 39 53 74 118 158 43 75 79 108 138 140 149 150 166 169 169 171 174 170 156 152 145 130 113 68 359 9 77 229 207 164 13 350 344 331 337 335 329
341 344 354 341 342 52 10 19 123 112 140 113 59 110 144 147 152 168 177 181 184 176 168 168 157 157 166 156 135 126 333 329 322 278 226 196 238 326 320 321 328 324 323
287 284 287 299 339 27 42 53 52 53 58 52 13 359 348 206 167 168 186 176 185 188 186 183 178 167 172 191 163 150 162 219 280 297 247 227 209 232 276 295 314 323 324
269 284 292 317 3 26 77 102 102 117 318 267 259 264 297 263 201 199 194 184 186 192 197 196 188 178 168 182 212 216 176 160 171 264 296 273 257 254 261 298 305 310 332
296 298 316 23 17 26 70 109 133 119 341 338 349 325 283 289 266 226 211 200 197 199 208 214 200 190 188 184 181 180 175 151 170 185 247 274 291 260 265 272 280 313 342
353 3 24 48 19 19 51 90 132 175 111 27 336 300 292 305 297 284 245 224 216 215 215 221 221 208 202 195 189 181 176 179 189 188 216 247 261 263 284 300 266 298 312